Voltar ao catálogo

ARCSTONE

AtivoCiênciaSSO
NORAD 64540·PAYLOAD·🇺🇸 United States

Lançado Jun 23, 2025 de Vandenberg Space Force Base

Loading…

Próximas Passagens (próximas 24 horas)

TLE

AtualizadoSource: Space-Track

Época: Sep 14, 2026, 14:26 UTC

1 64540U 25135N   26257.60174876  .00017063  00000-0  49447-3 0  9994
2 64540  97.4697  16.0923 0002244 204.5100 155.6037 15.35625452 68748

Acompanhe ARCSTONE em tempo real com AllMySat

Download on the App Store